Location: Newark
(48.4660°N, 135.0670°E)
Time: 16:54:59
(UTC+00:00)

X-37B - Visible Passes

Search period start: 30 September 2020 00:00
Search period end: 10 October 2020 00:00
Orbit: 386 x 387 km, 45.0° (Epoch: 18 September)

Date Brightness Start Highest point End Pass type
(mag) Time Alt. Az. Time Alt. Az. Time Alt. Az.
03 Oct 3.0 10:33:00 10° SSW 10:33:49 15° SSW 10:33:49 15° SSW visible
04 Oct 2.5 09:35:10 10° SSW 09:37:13 16° SSE 09:38:05 15° SE visible
04 Oct 3.8 11:10:21 10° WSW 11:10:21 10° WSW 11:10:21 10° WSW visible
05 Oct 1.8 10:12:01 10° SW 10:14:32 30° S 10:14:32 30° S visible
06 Oct 2.1 09:13:53 10° SSW 09:16:28 23° SSE 09:18:37 12° ESE visible
06 Oct 2.9 10:49:39 10° WSW 10:50:54 20° WSW 10:50:54 20° WSW visible
07 Oct 1.3 09:51:13 10° WSW 09:54:13 38° S 09:54:56 33° SE visible
08 Oct 1.8 08:52:54 10° SW 08:55:45 31° SSE 08:58:37 10° E visible
08 Oct 1.9 10:29:01 10° WSW 10:31:12 34° SW 10:31:12 34° SW visible
09 Oct 1.2 09:30:32 10° WSW 09:33:34 43° S 09:35:11 23° ESE visible
09 Oct 3.7 11:06:59 10° W 11:07:26 13° WSW 11:07:26 13° WSW visible
